TimeEDT,TemperatureF,Dew PointF,Humidity,Sea Level PressureIn,VisibilityMPH,Wind Direction,Wind SpeedMPH,Gust SpeedMPH,PrecipitationIn,Events,Conditions,WindDirDegrees,DateUTC
12:52 AM,36.0,24.1,62,29.99,10.0,SSW,3.5,-,N/A,,Partly Cloudy,210,2013-04-05 04:52:00
1:52 AM,36.0,25.0,64,29.99,10.0,Calm,Calm,-,N/A,,Clear,0,2013-04-05 05:52:00
2:52 AM,33.1,26.1,75,29.99,10.0,Calm,Calm,-,N/A,,Clear,0,2013-04-05 06:52:00
3:52 AM,34.0,25.0,70,29.99,10.0,West,4.6,-,N/A,,Clear,270,2013-04-05 07:52:00
4:52 AM,32.0,26.1,79,30.01,10.0,Calm,Calm,-,N/A,,Clear,0,2013-04-05 08:52:00
5:52 AM,30.9,25.0,79,30.02,10.0,SW,3.5,-,N/A,,Clear,230,2013-04-05 09:52:00
6:52 AM,28.0,26.1,92,30.03,10.0,South,3.5,-,N/A,,Clear,190,2013-04-05 10:52:00
7:52 AM,32.0,26.1,79,30.05,9.0,Calm,Calm,-,N/A,,Clear,0,2013-04-05 11:52:00
8:52 AM,39.0,32.0,76,30.06,9.0,Calm,Calm,-,N/A,,Clear,0,2013-04-05 12:52:00
9:52 AM,50.0,27.0,41,30.05,10.0,WNW,10.4,-,N/A,,Clear,300,2013-04-05 13:52:00
10:52 AM,54.0,26.1,34,30.06,10.0,NW,6.9,-,N/A,,Clear,320,2013-04-05 14:52:00
11:52 AM,57.9,28.9,33,30.06,10.0,NW,11.5,-,N/A,,Clear,310,2013-04-05 15:52:00
12:52 PM,60.1,30.9,33,30.05,9.0,NW,12.7,17.3,N/A,,Partly Cloudy,310,2013-04-05 16:52:00
2:52 PM,62.1,28.0,28,30.04,10.0,North,13.8,-,N/A,,Partly Cloudy,10,2013-04-05 18:52:00
3:52 PM,62.1,25.0,24,30.03,10.0,North,13.8,20.7,N/A,,Partly Cloudy,350,2013-04-05 19:52:00
4:52 PM,61.0,21.0,21,30.03,10.0,NNW,13.8,-,N/A,,Partly Cloudy,330,2013-04-05 20:52:00
5:52 PM,60.1,23.0,24,30.04,10.0,NW,9.2,-,N/A,,Partly Cloudy,320,2013-04-05 21:52:00
6:52 PM,57.9,23.0,26,30.06,10.0,North,10.4,-,N/A,,Scattered Clouds,10,2013-04-05 22:52:00
7:52 PM,54.0,26.1,34,30.07,10.0,North,9.2,-,N/A,,Scattered Clouds,350,2013-04-05 23:52:00
8:52 PM,51.1,28.0,41,30.10,10.0,North,8.1,-,N/A,,Partly Cloudy,360,2013-04-06 00:52:00
9:52 PM,51.1,27.0,39,30.12,10.0,NNE,8.1,-,N/A,,Clear,30,2013-04-06 01:52:00
10:52 PM,48.9,27.0,43,30.13,10.0,NNE,8.1,-,N/A,,Clear,30,2013-04-06 02:52:00
11:52 PM,48.9,25.0,39,30.13,10.0,NE,6.9,-,N/A,,Clear,50,2013-04-06 03:52:00